Погода в Клаипеде

Погода в Клаипеде : погода сейчас, прогноз погоды и архив. Всё, что Вы хотите узнать о погоде в Клаипеде!

Поиск расширенной информации на нашем сайте:

Другие новости

Новости СМИ2

Главная страница сайта

Новости сайта

03.07.2017

Напоминаем, что на нашем специализированном сайте Метеоцентр.Азия вы можете получить высокодетализированные автоматические прогнозы погоды по пунктам России, СНГ и мира в авиационном формате (включающие направление и скорость ветра, видимость, явления погоды, количество и форму облачности, нижнюю и верхнюю границу облачности).

Рекомендуем: Удобная и быстрая видео афиша для быстрого просмотра новостей

Погода в Клаипеде - сегодня

Время (UTC), дата Ветер
(°,м/с) 
Видим.   Явления Облачность Т
(°С)
Тd
(°С)
f(%) Тe
(°С)
Pmin
(гПа)
dP
(гПа)
Po
(мм)
O2
(г/м3)
Тmin Tmax R s Состояние
почвы
12 14.08.18 060 (СВ) 1-2{06}  20000 м  {ливн. осадки}  10/4 1000 м средняя 
[Sc|Ac cuf]
+18.3 +16.4 89 +31  1009.2  -1.2  756  282      0.7     
15 14.08.18 150 (ЮВ) 2-3{05}  20000 м  {ливн. осадки}  10/4 300 м средняя 
[Sc|Ac cuf]
+18.6 +17.3 92 +33  1008.5  -0.7  756  281           
18 14.08.18 140 (ЮВ) 1-4{05}  20000 м  {ливн. осадки}  9/6 360 м средняя 
[Cu Sc|Ac und]
+18.5 +17.5 94 +33  1008.2  -0.3  755  281    +18.8     
21 14.08.18 230 (ЮЗ) 3-6{06}  20000 м  в посл. час ливневой дождь  9/9 330 м 
[Cu Sc]
+19.6 +18.1 91 +34  1007.8  -0.4  755  280           
00 15.08.18 230 (ЮЗ) 4-8{08}  20000 м  {ливн. осадки}  8/8 660 м 
[Cu med, cong]
+19.3 +17 87 +32  1007.8  755  280      0.0     
03 15.08.18 260 (З) 5-9{10}  19000 м  в посл. час ливневой дождь  10/10 420 м 
[Cu Sc]
+19.2 +17.4 89 +33  1007.7  -0.1  755  280           
06 15.08.18 250 (З) 4-7{08}  20000 м  {ливн. осадки}  8/8 300 м кучево-дожд. 
[Cb calv]
+19.6 +17.5 88 +33  1008.6  0.9  756  280  +18.4    0.0    влажная 
12 15.08.18 290 (З) 4-8{08}  20000 м  в посл. час ливневой дождь  8/8 360 м 
[Sc]
+20.1 +17.7 86 +33  1012.9  1.9  758  281      0.0     
15 15.08.18 300 (СЗ) 5-7{09}  20000 м    8/8 930 м 
[Sc]
+20.3 +17.4 83 +33  1014  1.9  760  281           
18 15.08.18 300 (СЗ) 4-8{08}  20000 м    3/3 400 м 
[Sc]
+19 +16.7 87 +30  1015.4  1.4  761  283    +21  0.0     
21 15.08.18 300 (СЗ) 4-7{08}  20000 м    4/4 300 м 
[Sc]
+18.6 +16.8 89 +30  1016.8  1.4  762  284           
00 16.08.18 300 (СЗ) 2-5{07}  20000 м    3/3 420 м 
[Cu med, cong]
+18.1 +15.8 86 +29  1017.6  0.8  763  285           
03 16.08.18 330 (СЗ) 1-2{04}  20000 м    3/3 420 м 
[Cu med, cong]
+16.2 +15 93 +26  1018.2  0.6  763  287           
06 16.08.18 270 (З) 1-1{02}  20000 м    3/3 600 м 
[Cu med, cong]
+18.5 +15 80 +28  1019.2  764  285  +14.9        влажная 
09 16.08.18 220 (ЮЗ) 2-3{04}  20000 м    10/3 600 м 
[Cu med, cong]
+21.6 +16.4 72 +32  1020.1  0.9  764  282           
12 16.08.18 220 (ЮЗ) 2-4{04}  20000 м    ясно 
+22.6 +17.3 72 +35  1020.2  0.1  764  281           
18 16.08.18 тихо () -1{04}  20000 м    ясно 
+19.6 +17.4 87 +32  1019.6  -0.3  764  283    +23.5       
21 16.08.18 110 (В) 1-1{01}  20000 м    ясно 
+15.6 +15.4 99 +26  1019.8  0.2  764  288           
00 17.08.18 070 (В) 1-2{02}  13000 м    ясно 
+15.7 +15.5 99 +26  1020.1  0.3  764  288           
03 17.08.18 090 (В) 1-2{02}  20000 м    ясно 
+14.6 +14.4 99 +23  1019.7  -0.1  764  289           
06 17.08.18 110 (В) 2-4{04}  20000 м    ясно 
+19.5 +17.5 88 +34  1020.1  0.4  764  284  +14.4        влажная 
09 17.08.18 200 (Ю) 2-4{05}  20000 м    ясно 
+23.8 +15.9 61 +34  1020  764  280           
12 17.08.18 200 (Ю) 3-5{06}  20000 м    1/1 300 м 
[Cu med, cong]
+24.6 +15.8 58 +34  1019.5  -0.5  764  279           
18 17.08.18 тихо () -0{04}  20000 м    ясно 
+24.4 +16.4 61 +35  1017  -0.9  762  278    +26       
21 17.08.18 110 (В) 1-3{04}  20000 м    ясно 
+18.6 +16.6 88 +31  1017.4  0.3  762  284           
Время (UTC), дата Ветер
(°,м/с) 
Видим.   Явления Облачность Т
(°С)
Тd
(°С)
f(%) Тe
(°С)
Pmin
(гПа)
dP
(гПа)
Po
(мм)
O2
(г/м3)
Тmin Tmax R s Состояние
почвы

Для получения пояснительной информации подведите курсор к названию столбца.

ПОГОДА в Клаипеде - архив

Всё, что Вы хотите узнать о погоде в Клаипеде - удобно и подробно!

Выберите нужную дату (начиная с 1 января 2015* года) и нажмите кнопку "Найти".
Будут отображены архивные сводки погоды по пункту Клаипеда, начиная с указанной даты.


Отображать данные в формате CSV (для использования в таблицах Excel)


Внимание! Наш архив погоды предназначен исключительно для личного некоммерческого использования в познавательных целях. Если Вам необходимы официальные справки о состоянии погоды (для производственных, юридических, коммерческих и т.п. целей), обращайтесь в органы Росгидромета.

*Примечание: данная дата относится к архиву по метеостанциям СССР (Россия, СНГ, Балтия).
Архив по метеостанциям Зарубежной Европы и Азии (кроме Китая) хранится 10 дней, по другим регионам земного шара (Китай, Африка, Америка, Австралия, Океания) - 1 день.

Клаипеда - район местоположения метеостанции


Название, широта, долгота, высота метеостанции:
Клаипеда 55.7°ш. 21.1°д. 7 м над ур. моря [Литва]

Дополнительная информация

В oтличие oт бoльшинства пoгoдных сайтoв мы публикуем пoдрoбную метеoинфoрмацию в детальнoм прoфессиoнальнoм фoрмате.

Характеристики температуры и влажнoсти вoздуха измеряются на высoте 2 м в тени вдали oт зданий и деревьев.
Скoрoсть ветра измеряется на высoте 10 м (на урoвне рoста челoвека скoрoсть ветра ниже в 1.5-2 раза). Если метеoстанция нахoдится в гoрoде или в лесу, тo скoрoсть ветра занижена на 2-4 м/с пo сравнению с oткрытым местoм. Скoрoсть ветра над акватoриями крупных рек и oзёр, а также на вершинах хoлмoв на 2-5 м/с выше, чем в oбычных услoвиях.
Атмoсфернoе давление в разных тoчках местнoсти мoжет значительнo oтличаться oт давления на метеoстанции, в зависимoсти oт услoвий рельефа (при пoдъёме на 10 м давление пoнижается примернo на 1 мм рт.ст.).